Location: Hopville
(44.8032°N, 123.1329°W)
Time: 04:29:55
(UTC+00:00)

Cosmos 2058 - Pass Details

Date: 24 January 2021
Orbit: 561 x 584 km, 82.5° (Epoch: 26 February)

Event Time Altitude Azimuth Distance (km) Brightness Sun altitude
Rises 15:02:34 0° 355° (N) 2,780 6.2 -6.9°
Reaches altitude 10° 15:04:49 10° 0° (N) 1,875 5.3 -6.5°
Maximum altitude 15:08:52 54° 79° (ENE) 689 3.7 -5.8°
Drops below altitude 10° 15:12:52 10° 157° (SSE) 1,849 6.2 -5.2°
Sets 15:15:03 0° 162° (SSE) 2,738 7.0 -4.8°
